Satellite-Ground Cal/Val Site Overpasses Predictions

Prediction of Satellite NPP Overpassing Cal/Val Site: Antarctic Dome C

Ground Cal/Val Site Location: Latitude: -75.10, Longitude: 123.35; Satellite-Ground Site NADIR distance within 100 km.

Table of predicted overpasses for the next 14.0 days since TLE Epoch: 3/13/2015
Interval Starting Time Ending Time Minimum Distance Time Minimum Distance (km)
1 03/13/2015 15:00:52 03/13/2015 15:01:21 03/13/2015 15:01:06 17.22
2 03/14/2015 14:42:11 03/14/2015 14:42:23 03/14/2015 14:42:17 90.00
3 03/15/2015 07:43:41 03/15/2015 07:44:07 03/15/2015 07:43:54 39.86
4 03/16/2015 07:24:53 03/16/2015 07:25:14 03/16/2015 07:25:04 70.19
5 03/18/2015 15:07:06 03/18/2015 15:07:30 03/18/2015 15:07:18 54.03
6 03/19/2015 14:48:15 03/19/2015 14:48:39 03/19/2015 14:48:27 55.12
7 03/20/2015 07:49:56 03/20/2015 07:50:15 03/20/2015 07:50:05 75.06
8 03/21/2015 07:31:00 03/21/2015 07:31:28 03/21/2015 07:31:14 32.84
9 03/23/2015 15:13:23 03/23/2015 15:13:34 03/23/2015 15:13:28 91.71
10 03/24/2015 14:54:23 03/24/2015 14:54:52 03/24/2015 14:54:37 19.70


NCC Satellite Cal/Val Overpasses Prediction Service
